RH
43 44 42 40 37 33 30 26 22 19 17 15 16 19 22 23 26 27 25 24 26 24 18 14 13 14 17 19 20 23 23 21 22 25 26 28 30 30 30 31 32 33 35 37 37 35 34 36 37 36 34 35 34 33 32 32 31 30 31 33 35 36 37 37 36 35 31 27 27 28 27 27 28 29 31 33 34 36 35 34 33 32 32 32 31 29 28
42 41 41 41 38 35 32 29 23 21 20 17 15 20 24 24 25 28 28 27 25 21 17 15 16 17 19 21 23 22 20 20 22 24 26 28 29 30 31 31 31 31 32 34 36 37 37 38 38 36 35 35 34 33 33 33 32 31 30 31 32 33 33 35 37 37 35 33 33 34 33 31 31 32 34 37 38 39 39 38 37 36 36 37 37 35 34
45 41 41 41 40 38 34 30 26 22 22 21 18 19 23 25 26 26 28 29 26 21 19 20 20 19 19 20 22 21 19 20 21 22 23 25 27 31 32 30 29 29 30 31 33 34 35 35 35 35 35 34 33 33 33 33 33 33 33 32 32 32 34 36 38 39 40 39 39 40 39 36 34 35 37 39 41 42 43 42 41 40 39 40 40 39 38
47 43 42 43 43 41 35 31 30 26 24 24 22 20 21 24 27 27 28 31 29 25 22 21 20 20 19 19 20 20 19 18 19 20 20 22 25 28 30 29 27 27 28 28 28 31 33 34 34 34 34 32 31 32 31 32 33 34 34 34 34 34 34 35 38 40 41 43 44 44 44 42 38 36 38 40 41 42 42 43 43 41 40 41 41 40 40
46 42 43 43 45 46 40 35 34 33 30 27 25 23 22 22 26 30 30 30 31 32 28 24 22 22 20 19 18 19 19 19 18 19 20 20 22 24 26 28 27 27 28 27 27 30 32 34 35 35 33 32 31 30 29 29 31 32 33 33 33 33 33 33 34 38 42 44 45 46 47 47 43 39 39 40 41 41 40 41 42 42 40 40 41 40 39
46 43 43 44 47 48 44 39 36 35 33 29 26 25 24 23 25 29 30 28 30 33 32 28 25 21 20 20 20 20 21 20 19 19 19 20 24 25 25 25 27 29 30 31 33 33 31 32 34 33 31 31 30 29 28 28 29 32 33 33 32 32 32 32 31 33 38 44 46 48 49 49 46 43 40 39 39 39 40 40 40 40 40 39 39 39 38
45 45 47 51 51 48 45 43 37 33 31 29 28 27 25 23 23 26 29 31 32 33 32 29 26 22 21 21 21 21 21 20 19 19 18 19 23 25 24 23 26 29 30 33 36 34 28 27 30 30 28 28 29 28 28 28 29 30 31 32 32 32 32 32 31 30 35 41 45 47 48 49 47 43 41 39 38 39 40 40 40 39 39 39 39 38 38
48 48 51 55 51 44 45 44 39 34 31 29 30 30 27 25 26 28 31 35 38 37 34 31 26 24 24 23 22 22 20 19 18 15 16 19 21 23 25 26 26 26 28 30 32 32 29 25 25 26 24 24 26 27 28 29 29 30 31 32 32 32 32 32 31 31 34 39 42 44 45 46 44 42 40 40 40 40 41 41 42 40 39 39 39 40 40
51 50 48 50 48 44 45 44 40 38 34 31 32 33 32 31 31 31 34 38 39 35 33 32 29 27 28 28 25 22 18 19 20 18 20 26 25 24 28 29 27 25 25 26 26 28 30 26 23 24 22 21 22 24 25 28 29 30 31 32 32 32 32 32 32 32 34 37 40 41 41 41 41 40 41 42 43 44 44 44 44 42 40 40 39 40 40
53 53 50 48 49 49 46 43 43 43 40 36 35 35 35 35 33 34 37 41 41 35 30 30 32 33 35 32 28 25 23 26 28 27 30 32 29 25 28 30 28 24 22 21 19 20 23 23 22 23 22 20 20 20 21 24 27 29 31 32 32 32 32 31 32 33 35 36 38 40 40 41 42 43 43 44 45 46 46 45 45 43 42 42 41 42 42
54 55 55 51 49 49 49 46 44 45 45 43 39 37 41 45 44 42 42 41 41 37 33 34 36 37 37 32 29 31 32 32 31 28 30 33 32 29 30 31 28 23 20 19 19 19 23 25 25 24 23 20 18 17 18 20 22 26 30 31 31 31 32 30 31 34 36 38 40 42 43 45 46 46 45 45 47 47 47 47 46 46 45 45 45 45 46
56 56 56 53 51 53 54 50 47 47 50 48 43 43 52 57 52 46 42 40 41 40 38 39 41 41 39 35 32 32 33 32 30 26 26 29 30 29 28 28 26 22 20 23 25 24 24 24 24 24 23 21 19 16 15 17 18 21 25 27 28 29 30 30 30 34 37 39 42 45 46 47 47 47 46 46 47 48 48 48 48 47 46 46 47 48 49
57 58 56 52 55 60 58 55 54 53 50 49 50 56 64 62 54 50 48 47 49 49 45 44 46 46 43 37 32 30 29 28 27 26 25 26 27 27 26 25 26 24 24 26 28 26 23 22 22 24 23 20 19 18 16 16 17 18 20 22 23 25 28 29 29 32 36 39 41 46 48 49 48 48 48 48 48 49 50 50 50 48 47 47 47 48 49
55 58 57 53 58 63 61 60 62 59 57 63 69 71 72 65 58 57 57 54 54 53 50 48 48 46 42 35 31 29 28 27 26 27 28 27 27 27 26 25 27 28 27 27 27 27 26 25 25 26 26 23 21 19 18 18 18 18 19 20 21 23 26 28 28 30 35 38 40 44 47 49 50 49 48 49 50 50 51 52 51 50 49 49 49 50 50
56 58 56 58 66 68 62 63 67 67 71 80 79 74 74 69 61 59 61 60 58 54 50 48 46 43 40 37 34 31 29 28 27 28 29 30 30 29 27 26 27 27 28 29 29 28 28 26 23 22 25 26 23 21 21 21 21 20 21 22 22 23 24 26 26 28 33 37 40 42 45 47 48 48 48 49 50 52 51 52 52 51 52 51 51 51 51
55 57 59 65 72 71 66 67 73 74 77 80 76 73 75 70 64 62 60 59 59 58 54 50 47 43 41 37 34 32 30 29 28 28 29 30 30 29 28 27 28 28 28 29 29 29 29 28 23 20 24 26 25 24 24 23 22 21 22 23 23 23 24 26 26 27 30 34 38 40 43 44 45 47 48 49 50 51 51 51 51 51 51 51 50 50 49
59 60 65 70 70 69 70 71 71 72 75 74 71 72 75 73 69 67 62 57 58 59 56 51 47 43 40 38 35 33 32 32 30 30 31 30 31 31 29 29 30 29 28 29 29 29 29 29 26 24 26 27 26 27 27 25 23 23 22 23 25 24 25 26 28 28 29 31 35 39 41 42 44 46 49 49 50 51 51 51 51 50 50 51 50 48 48
64 59 62 66 65 68 72 71 67 67 71 73 71 70 72 75 74 69 64 60 57 54 52 52 49 44 41 40 39 37 36 34 33 33 33 34 34 33 32 32 32 31 30 30 30 30 30 31 29 29 30 30 30 30 31 28 26 24 24 25 26 26 26 27 28 29 30 30 32 35 38 39 41 44 47 48 49 50 50 51 51 51 51 51 51 50 50
68 62 59 61 63 67 70 69 67 68 68 69 69 67 68 73 73 68 64 60 54 49 49 50 51 47 43 41 41 40 38 37 37 36 36 37 38 36 35 35 34 34 33 33 32 32 32 32 32 32 33 33 32 31 32 30 28 26 26 28 29 28 28 29 29 29 30 30 31 33 35 37 39 41 44 46 48 48 49 50 50 50 50 50 51 51 51
66 64 61 60 62 65 67 65 65 66 65 65 65 63 62 67 70 68 62 56 51 47 47 49 50 50 48 45 43 41 39 39 39 39 38 39 39 38 38 38 37 36 36 35 34 35 34 33 34 34 34 35 34 34 33 33 31 28 28 30 31 30 30 30 31 31 31 31 31 32 33 35 38 40 41 43 44 46 47 48 48 49 49 50 50 51 51
62 59 58 58 58 61 62 59 57 60 62 60 59 60 60 61 65 66 62 57 51 46 45 47 49 50 50 50 47 43 41 41 41 41 40 40 40 39 38 38 38 37 37 37 37 37 35 34 34 34 35 35 34 34 34 34 33 31 30 30 31 31 31 31 31 32 32 32 33 33 33 34 36 39 39 40 42 43 43 44 46 47 48 48 48 47 48
60 56 54 56 58 59 58 56 55 59 60 56 54 56 58 57 59 61 61 58 53 48 45 46 47 48 50 51 51 47 44 43 43 43 41 40 40 40 38 37 38 37 37 38 38 37 36 35 33 33 33 34 34 35 35 35 35 34 32 32 31 31 31 31 31 31 32 33 33 34 35 34 35 36 37 38 40 41 41 41 42 43 42 42 42 42 43
59 56 53 53 57 58 56 54 54 56 58 57 53 52 53 53 54 56 56 55 52 50 47 44 45 47 48 49 50 49 47 45 44 43 42 41 41 41 38 36 37 38 37 37 38 37 37 36 34 32 32 31 32 33 34 35 35 35 35 34 33 32 31 31 31 32 32 33 33 34 36 35 35 35 36 36 37 38 37 37 38 38 38 37 37 38 38
54 52 50 51 52 53 54 54 52 50 50 51 50 47 48 50 50 49 50 49 48 47 45 43 43 45 46 46 48 49 49 48 46 44 44 43 42 41 40 39 39 39 38 38 38 37 37 36 35 33 32 31 31 32 34 36 36 35 36 36 35 34 34 33 32 34 36 37 36 36 36 37 37 37 36 36 36 36 36 36 37 36 36 36 36 36 36
53 51 49 48 46 47 49 49 48 45 44 46 46 44 44 46 46 46 46 45 45 43 42 42 41 42 42 44 45 46 48 48 46 46 45 44 41 40 41 41 41 41 41 40 39 39 38 38 37 35 33 33 32 33 35 37 36 36 36 36 36 36 37 37 37 37 38 39 39 38 38 37 37 37 36 36 36 36 37 36 34 32 32 32 32 32 32
58 55 52 47 42 40 42 43 41 39 40 41 41 40 40 40 41 41 41 42 43 42 40 39 38 37 38 40 42 44 45 44 44 44 44 44 42 42 42 45 47 47 45 42 40 40 40 40 40 40 38 36 35 35 36 38 38 38 37 36 37 38 39 40 40 39 39 40 39 37 36 37 36 36 35 36 37 37 37 36 34 32 30 29 27 27 27
58 56 56 53 44 38 36 37 36 34 34 35 34 34 35 35 36 36 36 37 38 38 37 35 34 33 34 37 39 40 41 42 44 46 46 45 44 45 47 51 53 53 49 44 40 40 40 41 42 43 42 41 39 38 38 39 39 39 37 36 37 39 40 40 39 38 37 36 33 31 32 35 35 34 34 35 36 35 34 35 36 35 34 30 26 26 27
59 58 58 56 48 39 36 36 35 33 31 31 31 30 29 30 30 31 31 31 32 33 33 33 32 32 34 36 37 38 40 44 48 51 51 52 52 53 55 56 57 56 53 47 42 41 41 41 42 42 42 42 42 41 41 41 40 39 38 38 39 40 41 41 38 34 32 31 29 29 31 34 35 35 34 35 35 34 35 37 36 35 35 32 28 28 29
59 58 56 52 46 41 39 38 38 36 33 35 37 36 33 30 28 28 28 28 28 29 30 31 32 32 33 37 39 39 42 49 56 58 57 56 57 58 58 59 59 60 56 50 45 44 42 42 42 42 41 42 43 42 42 42 40 39 38 39 40 40 39 39 36 31 29 29 29 29 31 32 33 34 34 34 35 37 39 39 37 36 36 33 31 32 34
62 57 54 49 45 43 42 40 39 38 37 37 39 38 35 33 30 27 27 27 29 33 35 36 38 39 39 41 44 44 46 53 59 61 60 60 62 63 61 60 59 60 57 53 49 45 44 44 43 42 41 41 42 42 42 41 40 38 35 35 37 36 35 37 38 36 34 33 33 34 34 34 35 36 36 37 39 40 41 41 41 41 40 37 35 36 37
76 70 64 57 51 47 43 41 41 40 39 40 39 36 33 32 30 27 25 25 30 39 44 45 48 49 49 49 50 50 50 54 60 64 65 64 65 67 65 61 59 59 58 56 51 47 46 46 44 42 42 41 41 42 42 42 42 41 39 38 38 36 36 38 40 40 39 39 40 40 40 39 38 39 40 42 43 43 43 43 43 44 44 42 41 40 41
89 85 81 76 68 58 50 45 44 42 41 41 40 38 35 33 31 29 26 25 30 40 47 49 51 54 55 55 54 53 53 54 58 64 68 68 70 72 70 67 63 60 58 56 53 50 49 48 47 45 45 43 42 43 44 44 44 44 44 43 43 42 41 41 41 42 42 43 44 43 43 42 42 42 44 46 47 46 46 45 45 44 44 45 45 46 46
94 88 84 82 77 70 62 56 52 48 46 44 42 39 38 37 35 32 27 25 31 41 47 51 54 56 57 56 55 56 59 62 64 65 66 69 73 78 78 74 69 63 60 58 56 54 53 51 50 48 47 46 46 45 45 45 46 46 47 47 47 47 47 46 46 46 46 47 48 48 47 46 46 47 48 49 49 48 49 49 49 49 49 50 51 52 51
95 89 84 81 77 74 72 69 64 57 54 52 49 45 42 40 38 34 28 26 32 42 50 55 56 56 57 59 60 62 67 74 79 78 73 71 73 76 76 76 74 69 65 61 59 57 57 55 53 52 50 49 49 49 48 47 48 48 49 49 50 50 50 50 51 51 51 52 53 54 53 53 53 53 54 54 53 53 54 54 54 55 56 56 56 55 55
97 92 88 86 82 78 76 74 70 66 62 60 56 52 48 44 41 35 29 28 35 47 55 58 57 57 63 71 74 72 72 77 84 87 83 79 79 76 72 72 75 73 68 64 61 60 60 59 57 57 56 54 54 53 52 50 50 50 50 51 51 52 53 55 56 57 57 57 59 59 59 59 58 58 59 59 58 57 59 59 59 59 59 59 58 58 58
98 96 93 91 89 86 82 79 76 74 72 69 64 57 51 46 42 35 29 31 42 53 58 59 60 66 76 82 82 80 80 83 87 90 88 86 85 81 75 72 74 74 70 67 65 63 62 62 62 61 61 60 58 56 55 54 54 55 54 54 54 55 57 59 60 61 60 61 62 62 63 62 62 62 63 63 62 61 61 62 63 63 62 62 61 60 60
95 95 95 92 90 88 87 86 85 85 83 77 69 61 53 47 40 34 32 38 48 57 60 63 69 78 84 86 84 85 88 90 89 88 89 88 88 86 80 75 75 77 76 74 70 66 63 63 63 62 62 61 59 58 58 57 57 58 57 56 56 58 60 61 62 62 61 61 62 64 64 64 64 65 66 65 65 64 64 65 66 66 67 67 64 62 60
93 92 91 87 84 86 88 87 85 84 84 80 71 62 56 49 42 38 40 46 53 60 67 75 82 87 88 88 87 87 88 88 86 85 85 84 83 82 78 73 72 74 74 72 68 64 62 61 60 59 60 59 58 58 59 59 58 59 59 57 58 59 59 60 61 61 62 63 64 65 66 66 66 66 66 65 65 66 67 68 69 69 70 69 65 60 57
95 94 92 85 81 82 86 87 83 79 80 81 75 66 59 53 43 41 51 62 67 71 76 82 88 93 93 92 92 90 88 87 84 82 79 77 77 78 79 75 71 68 67 66 64 63 62 61 59 58 58 58 57 56 57 57 58 59 60 60 60 59 59 60 62 62 63 64 65 66 68 67 67 66 66 67 67 68 69 70 71 72 71 68 63 59 56
96 96 95 89 82 78 80 87 89 83 80 81 77 68 63 58 50 52 70 86 86 83 84 85 86 91 95 95 94 94 92 89 86 82 78 76 75 75 76 75 71 66 64 64 64 63 63 62 61 60 59 59 58 57 57 58 59 61 62 62 62 62 62 63 64 64 65 66 67 68 69 69 68 67 67 68 69 70 71 72 72 71 69 65 61 58 57
97 97 96 94 91 87 83 84 88 85 83 85 83 71 62 62 60 66 84 98 93 85 86 89 88 92 97 97 95 94 92 89 87 83 79 77 76 75 73 72 69 66 66 66 67 67 66 66 65 65 64 63 63 63 62 63 63 64 65 64 63 63 63 63 63 65 66 66 67 68 70 70 70 70 70 71 73 74 74 73 71 69 67 64 62 60 60
98 100 98 95 97 98 93 89 90 89 87 92 94 80 67 66 70 76 87 97 96 91 93 96 95 96 97 96 94 93 91 89 87 84 81 81 82 79 76 74 72 70 71 72 72 72 72 71 71 71 70 70 69 68 68 68 68 68 67 67 66 65 64 64 65 67 69 69 70 71 72 73 74 74 75 75 75 75 73 71 69 67 67 65 63 63 64
94 98 99 97 97 99 97 94 97 96 89 86 89 83 73 73 81 86 90 94 96 95 96 98 97 97 97 95 93 93 92 89 87 85 85 85 85 83 81 81 80 78 78 78 78 78 78 77 77 77 76 76 75 73 71 71 71 70 70 70 70 70 70 70 71 72 73 73 74 74 74 74 75 75 75 74 73 72 71 70 67 67 69 69 68 69 72
92 93 97 98 98 99 98 95 97 98 92 86 85 84 79 78 84 89 91 92 94 94 95 94 93 93 94 95 96 96 96 93 89 87 84 83 83 82 83 85 86 86 85 84 82 81 81 80 79 79 78 77 76 75 73 73 72 72 73 74 75 75 75 75 75 76 76 77 77 77 77 77 76 75 74 73 72 71 71 70 70 70 72 75 77 78 79
91 90 93 94 95 97 99 97 95 97 96 93 91 90 88 86 87 91 93 95 94 93 93 93 90 90 92 93 93 94 94 94 93 91 90 90 90 89 85 83 83 84 86 86 86 86 85 84 83 83 82 82 81 80 80 80 80 79 80 80 81 80 80 79 79 79 79 79 79 79 78 77 77 76 74 73 71 70 69 69 68 68 68 70 74 76 76
90 89 90 91 92 94 97 98 97 96 96 94 94 95 95 95 94 95 96 96 95 94 94 93 92 92 93 92 91 91 91 92 92 93 93 94 95 95 93 91 87 83 82 85 88 89 89 89 88 87 86 86 86 86 86 86 86 85 84 84 83 83 82 81 80 79 78 78 77 76 74 73 72 70 69 68 67 66 64 64 63 61 59 60 62 63 64
84 84 84 86 89 91 93 95 96 96 95 93 90 90 92 95 97 97 96 95 95 95 95 94 93 93 93 93 92 93 93 92 92 92 91 91 91 92 92 94 92 87 82 82 84 86 85 83 82 81 80 80 80 80 80 80 79 79 79 79 78 77 76 75 73 72 71 70 69 67 66 65 63 62 61 60 59 59 60 60 60 58 55 55 54 53 52
76 80 80 81 83 86 88 90 91 93 94 94 91 89 87 87 89 91 92 93 94 94 94 94 93 93 92 91 91 91 92 91 91 90 88 86 86 86 87 88 89 87 83 79 77 76 75 74 73 72 72 72 71 71 70 69 68 67 67 68 67 67 66 66 65 65 64 63 62 62 61 60 59 58 58 57 56 56 57 57 56 55 53 53 53 51 49
66 71 73 75 78 81 83 84 85 87 90 91 92 92 90 86 84 84 86 89 91 92 92 93 92 91 89 88 88 87 87 87 87 87 84 82 82 83 85 85 85 85 82 79 75 73 72 71 69 68 67 67 67 67 66 65 63 62 62 61 61 61 60 59 59 59 58 58 58 57 57 57 56 56 56 55 55 55 55 54 53 52 51 50 51 51 50
52 57 61 65 70 75 77 78 79 81 83 85 86 88 90 90 88 86 86 87 89 90 91 91 91 91 90 88 87 85 83 82 81 80 80 80 81 81 82 81 81 80 78 77 75 73 72 70 68 66 64 63 62 62 61 60 60 59 58 57 57 57 57 57 56 55 54 54 53 52 52 52 52 51 51 51 51 50 51 51 50 48 47 46 47 49 50
43 45 48 52 57 63 67 71 74 76 77 79 80 82 83 85 86 86 86 86 86 87 87 87 88 88 88 87 87 86 84 82 79 77 76 77 78 77 75 74 73 71 70 69 68 67 66 65 64 63 61 60 59 59 58 57 56 56 55 53 52 51 52 52 53 52 52 51 51 50 50 50 49 48 48 48 47 47 47 46 46 45 44 44 45 46 47
41 40 40 42 46 49 52 57 62 66 70 72 75 76 77 78 78 80 81 82 82 82 83 83 83 84 83 83 83 83 82 81 79 78 78 77 77 75 73 71 69 66 64 63 61 60 59 59 59 58 57 55 55 55 55 54 53 52 52 51 49 48 48 48 49 48 48 48 47 47 47 46 46 46 45 44 45 45 44 44 43 43 43 43 43 43 44